Regional Weather Roundup
Issued by NWS

Home | Current Version | Previous Version | Graphics & Text | Print | Product List | Glossary On
Versions: 1 2 3 4 5 6 7 8 9 10 11 12 13 14 15 16 17 18 19 20 21 22 23 24 25 26 27 28 29 30 31 32 33 34 35 36 37 38 39 40 41 42 43 44 45 46 47 48 49 50
000
ASUS45 KABQ 220110
RWRNM
NEW MEXICO REGIONAL WEATHER ROUNDUP
NATIONAL WEATHER SERVICE ALBUQUERQUE NM
700 PM MDT WED JUN 21 2017

NOTE: "FAIR" MEANS FEW OR NO CLOUDS BELOW 12,000 FEET AGL WITH NO
       SIGNIFICANT WEATHER OR OBSTRUCTIONS TO VISION.

      THIS PRODUCT IS RELEASED AS TWO VERSIONS.  ONE VERSION NEAR
      THE TOP OF THE HOUR CONTAINING PRELIMINARY DATA FROM ALBUQUERQUE
      AND OTHER STATIONS.  A FINAL VERSION WITH ADDITIONAL DATA IS
      ISSUED ABOUT 10 MINUTES AFTER THE HOUR.

NMZ501-503-504-510>518-220200-
NORTHWEST PLATEAU/NORTHCENTRAL MOUNTAINS

CITY           SKY/WX    TMP DP  RH WIND       PRES   REMARKS
FARMINGTON     FAIR      97  27   8 NE9       29.93F
LOS ALAMOS     FAIR      86  30  13 NE15G26   30.13S
SANTA FE       FAIR      93  32  11 N20G31    30.01R
TAOS           FAIR      84  30  14 N9        30.14F
ANGEL FIRE     FAIR      77  35  21 S6        30.25F

$$
NMZ402-403-502-505>509-220200-
WESTCENTRAL MOUNTAINS/SOUTHWEST MOUNTAINS

CITY           SKY/WX    TMP DP  RH WIND       PRES   REMARKS
GALLUP         FAIR      94  29  10 N15       30.06F
GRANTS         FAIR      93  27   9 W10       30.07F
SILVER CITY    FAIR      76  53  44 E6        30.05F

$$
NMZ407-409-411-412-220200-
SOUTHERN DESERTS

CITY           SKY/WX    TMP DP  RH WIND       PRES   REMARKS
DEMING         FAIR      89  45  21 N26G41    29.90F
LAS CRUCES     FAIR      95  37  13 NW13      29.91R
HOLLOMAN AFB   FAIR      97  45  16 S15G28    29.86R
ALAMOGORDO     FAIR      97  41  14 S13G20    29.85R
T OR C         FAIR      93  40  15 W22G29    29.93F

$$
NMZ519>523-220200-
CENTRAL VALLEYS/CENTRAL HIGHLANDS

CITY           SKY/WX    TMP DP  RH WIND       PRES   REMARKS
ALBUQUERQUE    FAIR      99  27   8 CALM      29.92F
DOUBLE EAGLE   PTSUNNY   95  34  11 W12       29.98S
MORIARTY ARPT  FAIR      97  30   9 N10       30.00F
CLINES CORNERS FAIR      91  28  10 N15G23    30.08F
BELEN          FAIR     100  27   7 NW7       29.91S
SOCORRO        FAIR      97  36  11 SW13      29.88S

$$
NMZ524>526-539-540-220200-
SOUTHCENTRAL MOUNTAINS

CITY           SKY/WX    TMP DP  RH WIND       PRES   REMARKS
RUIDOSO        FAIR      84  45  24 S14       30.10S

$$
NMZ527>531-220200-
NORTHEAST HIGHLANDS/NORTHEAST PLAINS

CITY           SKY/WX    TMP DP  RH WIND       PRES   REMARKS
LAS VEGAS      FAIR      82  35  18 NE12G23   30.09R
RATON          FAIR      84  40  21 NE14      30.05F
CLAYTON        FAIR      83  47  28 W6        29.92R

$$
NMZ532>537-220200-
EASTCENTRAL PLAINS

CITY           SKY/WX    TMP DP  RH WIND       PRES   REMARKS
TUCUMCARI      FAIR      82  56  40 SE17      29.82F
CANNON AFB     CLOUDY    93  43  17 NW16      29.88R THUNDER
CLOVIS AIRPORT NOT AVBL

$$
NMZ028-029-538-220200-
SOUTHEAST PLAINS

CITY           SKY/WX    TMP DP  RH WIND       PRES   REMARKS
ROSWELL        TSTM      92  50  23 W23G33    29.86R
ARTESIA        FAIR      99  50  19 S14       29.81S HX  95
CARLSBAD       PTSUNNY   98  50  19 SE13      29.78S HX  95
HOBBS          FAIR      95  46  18 SE13      29.86S


$$




USA.gov is the U.S. government's official web portal to all federal, state and local government web resources and services.